Lapse_Rate
4.1 4.5 5.8 5.7 5.6 5.7 5.8 5.9 6.1 6.4 6.9 6.3 6.5 6.5 6.9 7.0 6.6 6.5 6.4 6.1 6.2 5.9 7.1 6.9 5.8 5.9 6.1 6.0 5.8 5.8 6.3 6.6 7.2 7.1 6.7 6.5 6.3 6.3 6.3 6.5 6.7 6.7 6.7 6.3
5.1 5.8 5.6 5.5 5.5 5.8 6.1 6.0 6.4 6.6 6.8 6.3 6.5 6.5 6.5 6.7 6.1 6.2 6.1 6.2 6.1 5.8 6.0 7.2 6.5 6.3 6.0 6.0 6.0 5.9 6.4 6.8 7.3 7.4 7.1 6.9 6.5 6.3 6.5 6.4 6.3 6.3 6.4 6.3
5.3 6.0 6.0 5.5 5.7 6.0 6.3 6.2 6.3 6.1 6.1 6.7 6.6 6.4 7.3 6.6 6.4 6.1 6.2 6.0 6.0 5.9 5.9 7.3 6.8 7.1 6.5 6.0 6.0 5.9 6.3 6.8 7.1 7.5 7.1 6.7 6.3 6.0 6.1 6.3 6.5 6.2 5.8 6.1
5.7 5.8 5.9 5.6 5.8 5.7 6.4 6.4 5.9 6.1 6.2 7.1 6.5 5.1 6.6 6.7 6.8 6.8 6.7 6.6 6.5 6.4 6.0 7.1 7.6 6.7 7.0 6.1 6.1 6.1 6.3 6.8 7.3 6.8 7.2 6.8 6.8 6.9 6.7 6.8 6.7 6.2 6.0 6.4
6.4 5.9 5.8 5.8 5.9 5.6 6.0 5.8 5.8 6.3 6.8 6.1 6.7 6.5 6.9 7.5 7.4 7.1 6.8 6.6 6.5 6.6 6.4 6.4 7.6 7.7 6.4 6.8 6.2 6.3 6.4 6.8 7.2 6.9 7.2 6.9 6.7 6.8 6.9 6.7 6.4 6.3 6.2 6.3
5.8 6.1 6.4 5.9 5.6 5.8 5.8 6.0 6.8 6.6 6.3 6.5 7.7 7.1 7.1 7.0 6.5 6.4 6.4 6.2 6.5 6.7 6.5 6.3 6.7 7.7 7.2 6.6 6.5 6.2 6.4 6.9 7.1 7.1 7.1 7.1 6.7 6.8 6.9 6.7 6.7 6.5 6.4 6.1
6.1 6.1 6.0 6.3 6.3 6.5 6.4 6.2 5.8 7.0 7.8 9.1 7.1 6.4 6.5 6.1 6.0 5.9 6.0 6.3 6.8 7.5 7.3 6.7 6.9 7.0 7.1 6.6 6.2 6.4 6.3 6.5 6.9 6.9 7.1 7.2 6.7 6.8 7.0 7.0 6.6 6.8 6.6 6.6
6.2 7.1 6.2 6.0 6.1 6.1 6.5 5.9 5.6 5.7 7.2 7.5 6.4 6.5 6.1 5.8 5.8 6.2 6.3 6.5 7.3 8.1 7.8 7.2 7.2 7.1 7.1 6.8 6.0 6.8 6.4 6.4 6.7 6.8 7.1 6.9 6.7 7.0 6.9 7.0 6.6 6.9 6.7 6.7
5.5 6.6 6.0 6.2 6.2 6.3 6.7 6.6 5.8 5.6 5.7 5.3 7.1 6.4 6.3 5.4 5.7 6.4 6.8 7.1 7.0 7.8 7.6 7.7 7.6 7.4 7.4 7.2 6.2 7.1 6.8 6.5 6.6 6.8 7.0 7.1 6.8 6.9 7.2 6.8 6.9 6.8 6.7 6.6
4.9 5.0 6.3 6.7 6.4 6.2 6.5 6.1 5.8 5.5 6.4 6.8 8.0 7.1 5.6 5.5 5.7 6.6 7.9 8.0 8.0 8.1 8.0 7.5 7.3 7.3 7.6 7.4 7.7 7.5 7.5 6.9 6.8 6.6 6.9 7.1 6.9 6.7 6.2 6.5 6.5 7.1 6.6 6.2
5.1 4.7 6.0 7.0 7.2 7.0 7.0 6.6 6.2 5.5 5.9 6.5 6.4 7.4 6.3 5.5 5.5 5.9 7.3 7.7 8.2 7.7 8.3 8.2 7.3 7.4 7.7 7.6 8.1 8.0 8.1 7.2 6.9 6.7 6.1 6.5 6.4 6.3 6.5 6.5 7.0 6.5 6.5 6.2
5.2 5.1 5.6 6.9 7.0 6.6 7.1 6.7 6.5 5.6 6.1 6.3 6.0 6.4 6.2 5.7 5.8 5.7 6.7 7.5 8.0 7.7 8.0 8.1 7.8 7.9 7.7 7.8 8.3 8.2 8.2 7.5 6.9 6.4 6.3 6.7 6.5 6.8 6.7 6.5 6.7 6.3 6.5 6.2
5.1 5.1 6.1 7.3 6.9 6.7 6.8 6.8 6.4 6.4 6.2 6.2 6.2 6.4 6.1 5.6 5.5 5.5 6.4 7.5 7.7 8.2 7.9 8.4 8.4 8.1 7.6 8.6 8.7 8.4 8.4 8.1 7.5 7.0 6.6 7.1 6.0 6.6 6.6 6.8 6.3 6.3 5.7 5.3
5.3 5.3 5.8 5.8 6.3 6.2 6.0 6.7 6.5 6.5 6.1 5.6 6.0 5.5 5.5 5.3 5.2 5.8 6.5 7.5 7.6 8.1 8.2 7.7 7.7 7.6 7.9 8.4 8.5 7.9 7.7 7.5 7.4 7.2 7.0 6.5 6.7 7.0 7.4 6.9 6.4 6.2 5.6 5.0
5.0 5.6 6.0 6.3 6.1 6.4 6.5 6.1 6.5 6.2 5.8 5.4 5.5 6.3 5.3 5.2 5.4 5.6 6.4 7.3 7.9 8.0 8.2 8.1 7.8 8.3 8.3 8.4 8.0 7.4 7.4 7.4 7.0 6.5 6.8 7.0 6.8 6.9 7.2 7.0 6.8 6.5 6.5 5.6
5.0 5.4 5.7 5.9 6.7 6.7 6.7 6.2 6.5 6.4 6.0 5.6 6.0 6.4 5.7 5.7 5.5 5.7 6.4 7.2 8.1 8.1 8.3 7.9 8.0 8.0 8.2 7.8 7.3 7.1 7.1 7.0 5.9 7.0 7.1 7.0 7.0 7.3 7.2 7.4 7.1 6.4 6.1 5.1
5.1 5.4 5.3 6.5 6.7 7.0 6.4 6.4 6.3 6.1 5.7 5.4 5.2 5.3 5.3 5.6 5.8 5.7 6.5 6.8 7.7 8.2 8.0 8.0 7.9 7.1 7.2 7.0 7.0 5.2 5.8 7.3 6.8 6.5 6.4 6.9 7.0 7.1 7.1 6.7 6.3 6.0 5.3 5.3
5.7 5.5 5.5 6.0 6.3 7.5 6.7 6.3 6.1 5.8 5.7 5.5 5.4 5.5 5.5 5.5 5.6 5.6 6.2 7.1 7.8 8.1 8.3 8.4 7.4 7.5 7.6 6.9 6.9 7.0 7.1 6.8 7.4 7.6 7.3 7.1 7.3 7.3 7.1 6.8 6.2 5.6 5.4 4.9
5.8 5.4 5.8 5.8 6.2 6.7 6.6 6.2 6.0 5.8 5.7 5.4 5.4 5.4 5.7 5.8 5.6 5.7 6.0 6.4 7.4 7.9 7.9 8.0 7.6 7.3 6.7 6.8 6.3 6.7 6.6 6.8 7.1 7.4 7.5 7.6 7.5 7.2 6.9 6.5 6.2 5.8 5.4 5.0
5.4 5.3 5.6 5.8 5.6 6.5 6.4 5.9 5.7 5.9 5.5 5.4 5.4 5.3 5.4 5.7 6.1 5.7 6.2 6.4 6.7 7.1 7.6 7.6 7.5 7.2 6.9 6.8 6.6 6.5 5.8 6.2 7.1 7.5 7.4 7.0 7.0 7.1 6.8 6.1 5.9 5.3 5.2 4.5
6.0 6.2 6.3 6.6 6.3 6.4 5.8 5.8 5.8 6.3 6.0 5.4 5.4 5.5 5.3 5.4 5.4 5.5 5.4 6.1 6.5 7.0 7.2 7.2 7.3 7.2 7.3 7.1 7.0 7.0 7.2 7.2 7.3 7.4 7.2 7.2 7.2 6.6 6.0 5.7 5.7 5.2 4.7 4.6
5.8 6.0 6.4 6.6 6.6 5.8 5.7 5.7 5.3 5.4 5.1 5.1 5.4 5.3 5.2 5.2 5.6 5.7 5.5 5.7 6.0 6.2 7.1 6.9 6.7 6.9 7.0 7.2 7.3 7.1 7.3 7.2 7.4 7.2 7.1 6.7 6.0 5.7 5.4 5.3 5.1 4.3 4.0 4.4
5.8 5.7 5.9 6.0 6.8 6.3 5.5 5.1 5.1 5.0 4.9 5.2 5.1 4.7 4.9 5.5 5.9 5.9 6.2 6.2 5.7 5.7 5.8 6.3 6.6 6.7 6.4 6.4 6.7 6.7 6.8 7.0 7.1 7.0 6.7 6.2 5.9 5.5 4.6 4.6 4.7 4.4 4.5 4.4
5.8 5.6 5.3 5.3 6.1 5.7 5.5 5.9 5.8 5.6 4.9 4.9 4.8 4.8 5.1 5.5 5.8 5.8 6.1 6.3 6.2 5.8 5.3 5.7 6.0 6.4 6.8 6.6 6.2 6.4 6.0 6.1 6.1 6.3 6.2 5.6 5.2 5.0 4.5 4.6 4.8 4.6 5.0 5.3
5.5 5.4 5.1 5.4 5.4 5.5 5.4 5.2 5.3 5.1 5.0 4.7 4.6 4.6 5.4 5.6 5.7 5.7 5.8 6.2 6.2 6.1 5.4 5.5 5.3 5.2 5.5 6.2 6.0 6.2 6.0 6.1 6.1 5.8 5.1 5.2 4.8 4.8 4.8 5.0 5.0 5.2 5.5 5.7
5.7 6.7 5.3 5.7 5.6 5.3 5.4 5.6 5.6 5.3 5.0 4.9 4.9 5.2 5.4 5.5 5.7 5.4 5.7 5.8 6.0 6.2 5.8 5.3 4.9 4.4 4.6 5.1 5.0 5.2 5.3 5.0 4.9 5.0 4.5 4.5 4.9 5.0 5.3 5.4 5.9 5.8 6.0 5.6
Wind_Speed
5 9 6 10 10 15 16 17 19 21 20 20 22 25 24 23 24 24 24 23 23 24 25 24 19 18 15 15 17 17 21 21 16 12 13 15 14 13 12 11 13 15 15 15
9 9 6 10 11 14 16 18 20 20 16 24 27 27 29 25 20 20 19 19 22 22 23 23 20 20 16 16 16 19 22 22 18 13 14 13 14 13 12 11 13 14 14 15
11 9 6 9 12 14 13 16 16 23 26 26 23 19 8 15 15 8 12 14 16 19 21 22 21 21 19 17 19 19 21 22 20 20 13 12 12 12 12 12 11 12 13 12
6 1 10 10 12 8 15 13 21 25 21 14 17 9 16 10 11 9 7 11 14 15 18 22 21 22 19 18 19 21 21 22 19 20 17 18 15 15 14 13 12 12 14 14
8 11 10 9 8 10 14 19 24 26 20 13 13 7 11 21 7 14 18 21 20 18 19 22 24 23 24 20 18 20 21 22 21 19 19 16 17 14 13 13 13 10 11 13
13 5 7 7 11 14 12 19 22 5 5 5 4 8 12 12 20 21 24 26 24 21 21 23 23 23 24 21 20 19 21 20 19 17 19 19 18 16 16 13 12 12 11 10
12 4 1 4 16 4 13 15 5 3 6 12 9 10 10 17 23 26 26 27 25 22 20 22 23 22 22 21 20 16 19 19 18 19 21 21 17 17 18 17 14 14 12 11
9 3 4 9 12 10 13 6 1 6 10 15 17 5 8 19 22 18 24 24 23 16 13 14 20 22 19 21 19 17 20 18 17 21 20 19 19 14 13 15 14 13 12 12
7 3 13 5 12 6 9 6 10 5 8 7 2 4 5 18 27 27 25 23 20 21 8 11 17 17 20 19 17 18 19 20 20 21 17 17 18 17 14 15 14 12 13 13
4 8 8 13 4 6 4 6 4 1 6 7 14 8 5 18 25 26 28 26 23 20 10 10 15 16 18 17 17 20 22 24 19 19 21 18 19 15 15 15 16 16 15 16
9 5 12 16 3 7 4 6 2 3 4 4 8 10 2 17 20 24 25 25 23 22 13 8 11 18 18 16 18 18 18 20 18 16 15 15 16 16 13 10 12 13 15 17
6 6 8 19 3 8 10 12 7 3 4 6 3 5 17 20 26 22 22 23 25 25 10 6 11 13 13 14 14 14 14 18 18 19 15 13 11 14 14 14 16 13 15 13
6 4 9 11 7 7 18 15 13 12 12 6 7 9 20 22 21 23 23 22 23 25 14 5 10 10 12 14 12 13 14 14 17 19 16 16 14 14 16 16 15 15 15 13
7 9 7 7 16 17 14 16 12 13 7 6 5 23 21 24 21 24 21 19 16 17 19 3 3 6 10 13 12 13 14 16 13 16 16 16 14 15 16 16 15 15 15 17
4 11 13 16 17 16 12 10 14 13 5 4 14 20 17 22 19 17 16 17 17 17 17 16 4 4 10 13 12 13 13 14 13 14 13 14 15 16 16 16 15 16 13 12
6 9 14 16 10 8 15 9 15 15 7 6 17 18 15 16 13 16 18 18 15 15 15 14 12 6 7 10 9 10 12 14 14 14 16 16 16 15 16 17 19 17 16 15
7 7 9 10 15 15 2 7 14 14 2 11 15 20 17 19 18 14 19 17 14 15 15 13 10 7 9 10 9 4 13 15 15 15 16 16 17 17 17 18 19 18 15 13
7 10 7 11 13 3 3 7 12 14 3 13 16 20 20 14 14 8 14 17 17 14 14 16 11 9 11 11 12 12 13 13 14 15 15 15 17 18 17 17 18 18 16 16
10 7 6 4 10 15 2 5 14 15 13 12 18 19 19 18 7 1 15 15 15 15 10 9 9 9 8 7 11 14 14 15 15 14 14 16 17 17 17 15 15 16 17 15
4 8 6 10 4 3 3 10 14 11 3 18 17 17 18 17 12 9 19 16 14 14 12 10 11 8 7 8 8 11 15 14 17 15 15 15 17 17 16 15 14 14 15 14
8 6 9 8 7 9 6 10 14 6 12 18 16 15 17 10 5 11 10 15 14 13 14 13 11 11 9 8 10 11 12 14 15 17 17 16 16 17 17 16 13 15 14 14
6 6 6 4 7 6 6 14 12 12 14 16 14 13 14 11 9 11 7 9 14 15 14 14 9 9 10 9 10 13 14 13 16 17 18 17 16 14 13 17 13 14 15 16
4 4 8 7 8 17 19 15 11 11 16 13 12 12 12 13 9 10 9 10 8 10 10 10 8 8 9 11 9 14 12 14 17 18 18 16 16 14 14 14 16 14 15 12
13 10 9 13 4 11 19 20 18 16 15 10 9 10 12 11 8 8 7 8 8 7 8 8 7 9 9 13 14 13 14 15 18 18 16 15 16 14 12 10 10 12 12 11
14 17 14 18 19 15 10 9 9 9 8 8 8 7 10 11 8 5 6 6 6 5 6 7 7 7 8 12 15 12 13 17 19 15 14 14 11 14 14 13 11 12 11 10
16 21 14 12 4 8 12 11 12 10 10 9 8 9 8 7 7 4 5 4 4 4 5 7 8 9 9 11 15 15 12 15 21 16 10 8 9 13 13 13 15 24 22 24
Wind_Direction
336 284 305 339 311 297 296 295 296 295 301 296 283 290 288 282 276 272 268 265 259 253 254 257 246 241 237 239 216 209 199 194 186 186 189 191 189 191 183 183 175 174 177 177
263 275 349 312 305 295 295 296 292 303 309 311 299 298 291 279 268 266 269 271 264 253 248 252 242 238 221 233 216 213 203 188 184 186 193 195 192 187 182 181 179 180 178 175
297 302 341 309 308 306 308 301 310 307 314 301 295 306 300 315 285 267 280 277 272 262 245 246 247 237 223 221 215 214 202 192 183 187 194 190 189 184 182 181 179 180 180 173
286 346 303 307 304 320 308 336 313 309 319 309 336 294 302 306 282 272 300 312 300 271 248 248 241 242 223 221 213 213 199 192 188 190 190 188 186 186 189 176 173 177 179 180
339 314 319 300 333 321 292 319 303 296 294 306 284 258 270 309 308 329 317 321 309 291 267 247 242 231 234 214 211 207 207 194 192 189 190 183 192 189 173 176 153 170 172 174
307 287 281 309 312 286 307 306 317 300 305 263 337 315 302 353 326 316 325 317 306 296 277 254 239 229 230 210 201 207 208 197 189 183 190 187 191 181 177 165 166 170 166 166
317 169 183 286 326 315 320 352 321 324 303 309 5 315 287 332 330 325 306 313 305 294 283 247 226 221 220 211 200 187 204 195 187 184 189 186 186 177 169 159 178 171 166 166
344 156 13 349 341 312 313 29 2 305 329 308 310 304 307 325 308 321 329 316 309 305 276 236 217 216 208 209 196 176 198 190 181 191 185 186 181 178 165 172 172 170 168 163
320 303 341 325 321 294 359 327 334 283 264 267 263 266 298 325 332 335 331 332 327 319 284 248 225 205 209 194 195 178 192 186 183 191 187 179 177 179 160 178 154 160 161 145
334 298 300 326 266 192 308 357 321 281 305 299 331 338 293 310 323 327 335 337 328 314 282 229 236 206 199 189 185 176 187 185 178 184 188 174 173 169 156 157 165 151 141 142
296 239 304 297 331 351 2 333 294 240 247 292 318 335 342 323 326 329 334 337 328 302 297 219 223 209 191 175 178 174 180 182 174 179 180 168 152 164 140 125 125 136 131 138
328 296 289 298 278 219 334 343 345 285 314 274 256 290 350 353 327 330 340 334 334 330 306 206 189 184 183 165 178 175 175 178 171 179 161 128 147 139 124 121 111 121 120 126
336 254 309 327 161 222 340 315 322 297 283 273 310 304 332 341 333 336 346 336 342 339 357 318 179 175 196 164 159 144 145 158 157 167 128 115 128 130 109 106 112 114 111 113
216 260 282 283 297 302 297 323 312 309 308 325 288 315 345 332 343 336 335 336 346 349 356 40 155 166 147 146 141 149 155 158 148 149 126 131 132 115 112 115 112 114 115 122
245 287 304 303 294 283 295 301 331 336 348 297 316 325 353 333 327 344 332 340 0 8 7 2 68 188 159 159 153 151 149 147 147 129 122 113 109 104 109 112 113 102 94 91
306 284 303 293 284 280 283 276 324 341 351 315 332 337 342 325 327 0 351 350 360 5 7 360 9 141 123 139 143 153 132 121 118 112 107 108 107 119 117 116 110 102 104 110
284 298 310 300 327 304 341 290 341 335 359 336 351 337 354 339 346 14 346 349 359 2 360 356 11 51 72 68 69 117 110 107 117 121 115 121 123 113 111 114 112 107 108 113
269 300 282 303 310 279 38 330 337 328 330 347 353 346 358 341 325 34 352 348 354 2 13 356 5 38 58 95 100 92 102 114 106 109 114 116 111 111 115 114 116 120 121 116
229 285 303 299 317 286 38 353 343 338 323 345 357 346 357 343 311 116 5 353 349 350 7 12 11 29 43 73 108 113 111 114 113 112 116 116 116 114 115 115 118 119 116 110
217 243 277 313 291 286 49 352 334 319 225 5 358 351 356 347 1 348 348 347 348 1 7 18 14 39 76 98 106 113 120 122 120 120 115 116 118 116 113 115 115 111 105 112
306 278 262 269 281 285 52 347 322 270 354 336 352 356 350 353 336 318 335 337 352 357 14 13 27 29 42 99 113 106 107 108 111 109 108 108 107 109 112 108 109 114 114 120
290 307 288 283 276 284 38 328 337 327 323 322 341 354 345 351 354 341 6 330 349 359 4 18 18 35 34 55 91 98 99 108 111 113 106 106 111 112 115 117 114 118 120 111
269 236 312 296 295 316 311 306 304 305 312 317 338 350 347 342 6 346 349 4 2 11 5 8 18 50 66 82 78 102 102 111 111 107 104 106 108 114 118 118 128 119 115 119
277 259 257 301 261 305 309 300 290 288 292 327 335 338 342 349 6 346 3 5 2 16 16 16 35 58 80 102 102 98 106 105 101 102 105 109 107 108 108 110 113 113 114 117
280 293 277 283 284 285 258 347 339 316 317 319 329 342 341 341 12 358 9 10 6 15 47 49 46 48 85 107 106 109 115 112 97 87 97 103 107 110 113 101 106 108 97 96
259 260 253 263 340 291 294 311 317 310 306 329 335 331 342 347 8 10 49 33 25 24 67 78 70 64 70 102 111 107 113 121 111 109 103 105 111 108 114 108 93 57 69 67